Find Local Weather

World > North America > United States > Illinois

Bourbonnais, Illinois Regional Weather

Lat: 41.16N, Lon: 87.88W
Wx Zone: ILZ023
Feedback
Expires:201810230600;;597787
ASUS43 KLOT 230509
RWRIL 

ILLINOIS REGIONAL WEATHER ROUNDUP
NATIONAL WEATHER SERVICE CHICAGO/ROMEOVILLE IL
1200 AM CDT TUE OCT 23 2018

NOTE: "FAIR" INDICATES FEW OR NO CLOUDS BELOW 12,000 FEET WITH NO
SIGNIFICANT WEATHER AND/OR OBSTRUCTIONS TO VISIBILITY.

* THESE STATIONS ARE NOT UNDER NWS QUALITY CONTROL. THEY ALSO MAY NOT
  REPORT WEATHER SUCH AS PRECIPITATION OR FOG.


ILZ005-006-012>014-019>023-230600-
NORTHEAST ILLINOIS
  
CITY           SKY/WX    TMP DP  RH WIND       PRES   REMARKS
CHICAGO-OHARE  FAIR      51  33  50 W7        30.07R                  
CHICAGO-MIDWAY FAIR      51  33  50 W8        30.08R                  
AURORA         FAIR      43  34  70 W7        30.10R                  
LANSING*       FAIR      48  33  55 W7        30.08S                  
JOLIET*        FAIR      48  35  60 W3        30.10R                  
WAUKEGAN       FAIR      46  29  51 W5        30.06R                  
DUPAGE AIRPORT FAIR      50  32  50 W10       30.09R                  
KANKAKEE*      FAIR      45  35  66 W8        30.11S                  
WHEELING       FAIR      51  31  46 W6        30.09R                  
MORRIS*        FAIR      42  33  70 W8        30.10S                  
ROMEOVILLE*    FAIR      44  35  69 W8        30.10R                  
NORTHERLY ISL    N/A     54  32  43 NW8         N/A                   
$$


SKY/WX - Weather  TMP - Temperature  DP - Dew Point  RH - Relative Humidity
WIND - Wind Direction/Speed PRES - Barometric Pressure